Weather in Mazurka

Russia / Voronezh Oblast     51°16′23″N   42°33′50″E
temp.,
°C
wind,
m/s
gust,
m/s
humid.,
%
clouds,
%
prec.,
mm/h
press.,
hPa
HPBL,
m
7 may, fri
fri700:00+13sse51164100 0.0 1013279
03:00+12sse41167100 0.0 1012280
06:00+12sse61367100 0.0 1011330
09:00+15ssw5867100 0.1 1011806
12:00+14wnw5579100 1.1 1012637
15:00+12nw4679100 3.1 1014809
18:00+11nnw367798 0.1 1016923
21:00+8ne35874 0.1 1017100
8 may, sat
sat800:00+6e348971 0.0 101761
03:00+5w118853 0.0 101810
06:00+7e2282100 0.0 101779
09:00+12se3458100 0.0 1016609
12:00+16s5649100 0.0 10141020
15:00+18s7951100 0.0 10121537
18:00+15ssw51177100 0.3 1011411
21:00+14se51289100 1.5 1010277
9 may, sun
sun900:00+13s4992100 0.3 1009212
03:00+11sw2396100 0.3 100973
06:00+9wnw4889100 0.0 1010340
09:00+7wnw5789100 1.5 1011525
12:00+6wnw5993100 4.4 1012592
15:00+6nw4892100 7.3 1013546
18:00+7nw4791100 2.3 1015580
21:00+6nnw61193100 3.6 1015547
10 may, mon
mon1000:00+6nnw61295100 2.0 1015596
03:00+6n81596100 8.9 1015613
06:00+7n91896100 4.3 1014712
09:00+9nne91695100 9.8 1015521
12:00+15ne91581100 0.1 1015987
15:00+18ne91378100 1.4 10151120
18:00+16nne61182100 2.9 1015256
21:00+14ene4793100 6.0 1017172
11 may, tue
tue1100:00+14ne51195100 1.0 1017368
03:00+14ne81688100 1.4 1016526
06:00+8s61394100 0.5 1020407
09:00+11se568059 2.3 1023810
12:00+15se45620 0.0 10241166
15:00+17ese235247 0.0 10241299
18:00+16wsw0062100 0.0 102466
21:00+13nw2472100 0.0 1022101